When you browse on this site, cookies collect data to enhance your experience and personalize the content and advertising you see.
Visit our Privacy Policy to learn more. By continuing to use the site, you agree to this use of cookies and data.
  • en Suisse
  • Liste des pays
  • À 7 jours
  • Température de l'eau
  • Carte satellitaire
  • Carte météo
  • Widgets météo
  • user-avatar
    Se connecter

    Météo par heure à Kazmirow

    Ce jour, 25 Avril, Jeudi

    Heure Température Précipitation Vent Pression Humidité
    00:00 +14°C° 0 mm 5 m/s 745 mmHg 73%
    01:00 +13°C° 0 mm 5 m/s 745 mmHg 74%
    02:00 +13°C° 0 mm 5 m/s 745 mmHg 76%
    03:00 +13°C° 0 mm 5 m/s 745 mmHg 78%
    04:00 +12°C° 0 mm 5 m/s 744 mmHg 79%
    05:00 +13°C° 0 mm 5 m/s 745 mmHg 78%
    06:00 +14°C° 0 mm 6 m/s 745 mmHg 76%
    07:00 +16°C° 0 mm 6 m/s 745 mmHg 74%
    08:00 +17°C° 0 mm 5 m/s 745 mmHg 70%
    09:00 +19°C° 0 mm 5 m/s 745 mmHg 66%
    10:00 +21°C° 0 mm 4 m/s 746 mmHg 61%
    11:00 +22°C° 0 mm 4 m/s 746 mmHg 58%
    12:00 +23°C° 0 mm 4 m/s 746 mmHg 54%
    13:00 +25°C° 0 mm 4 m/s 746 mmHg 51%
    14:00 +25°C° 0 mm 3 m/s 745 mmHg 51%
    15:00 +25°C° 0 mm 3 m/s 745 mmHg 51%
    16:00 +25°C° 0 mm 3 m/s 745 mmHg 51%
    17:00 +22°C° 0 mm 3 m/s 745 mmHg 58%
    18:00 +21°C° 0 mm 3 m/s 745 mmHg 64%
    19:00 +19°C° 0 mm 2 m/s 745 mmHg 71%
    20:00 +18°C° 0 mm 3 m/s 745 mmHg 72%
    21:00 +18°C° 0 mm 3 m/s 745 mmHg 73%
    22:00 +17°C° 0 mm 3 m/s 745 mmHg 74%
    23:00 +16°C° 0 mm 3 m/s 745 mmHg 74%

    Demain, 26 Avril, Vendredi

    Heure Température Précipitation Vent Pression Humidité
    00:00 +16°C° 0 mm 3 m/s 745 mmHg 75%
    01:00 +14°C° 0 mm 3 m/s 744 mmHg 76%
    02:00 +14°C° 0 mm 4 m/s 744 mmHg 76%
    03:00 +14°C° 0 mm 4 m/s 744 mmHg 76%
    04:00 +14°C° 0 mm 4 m/s 743 mmHg 76%
    05:00 +15°C° 0 mm 4 m/s 743 mmHg 73%
    06:00 +16°C° 0 mm 5 m/s 743 mmHg 70%
    07:00 +17°C° 0 mm 5 m/s 742 mmHg 67%
    08:00 +19°C° 0 mm 5 m/s 742 mmHg 61%
    09:00 +21°C° 0 mm 5 m/s 742 mmHg 56%
    10:00 +22°C° 0 mm 5 m/s 742 mmHg 51%
    11:00 +23°C° 0 mm 5 m/s 741 mmHg 49%
    12:00 +25°C° 0 mm 5 m/s 741 mmHg 47%
    13:00 +26°C° 0 mm 5 m/s 741 mmHg 45%
    14:00 +26°C° 0 mm 5 m/s 741 mmHg 45%
    15:00 +26°C° 0 mm 5 m/s 740 mmHg 46%
    16:00 +26°C° 0 mm 4 m/s 740 mmHg 46%
    17:00 +25°C° 0 mm 4 m/s 740 mmHg 52%
    18:00 +22°C° 0 mm 3 m/s 739 mmHg 57%
    19:00 +21°C° 0 mm 2 m/s 739 mmHg 63%
    20:00 +20°C° 0 mm 3 m/s 739 mmHg 63%
    21:00 +19°C° 0 mm 3 m/s 739 mmHg 64%
    22:00 +19°C° 0 mm 4 m/s 740 mmHg 64%
    23:00 +17°C° 0 mm 5 m/s 740 mmHg 70%

    Après-demain, 27 Avril, Samedi

    Heure Température Précipitation Vent Pression Humidité
    00:00 +16°C° 0 mm 6 m/s 740 mmHg 75%
    01:00 +16°C° 0 mm 7 m/s 740 mmHg 81%
    02:00 +15°C° 0 mm 7 m/s 741 mmHg 81%
    03:00 +14°C° 0 mm 7 m/s 741 mmHg 80%
    04:00 +12°C° 0 mm 8 m/s 742 mmHg 80%
    05:00 +12°C° 0 mm 7 m/s 742 mmHg 78%
    06:00 +12°C° 0 mm 7 m/s 743 mmHg 77%
    07:00 +11°C° 0 mm 7 m/s 743 mmHg 76%
    08:00 +11°C° 0 mm 7 m/s 743 mmHg 74%
    09:00 +11°C° 0 mm 7 m/s 744 mmHg 73%
    10:00 +11°C° 0 mm 7 m/s 744 mmHg 72%
    11:00 +11°C° 0 mm 6 m/s 744 mmHg 71%
    12:00 +13°C° 0 mm 6 m/s 744 mmHg 69%
    13:00 +13°C° 0 mm 5 m/s 744 mmHg 67%
    14:00 +14°C° 0 mm 5 m/s 744 mmHg 64%
    15:00 +15°C° 0 mm 5 m/s 744 mmHg 61%
    16:00 +17°C° 0 mm 4 m/s 744 mmHg 57%
    17:00 +16°C° 0 mm 3 m/s 744 mmHg 61%
    18:00 +15°C° 0 mm 2 m/s 744 mmHg 64%
    19:00 +14°C° 0 mm 2 m/s 744 mmHg 68%
    20:00 +13°C° 0 mm 1 m/s 744 mmHg 69%
    21:00 +13°C° 0 mm 1 m/s 745 mmHg 70%
    22:00 +13°C° 0 mm 1 m/s 745 mmHg 71%
    23:00 +12°C° 0 mm 1 m/s 745 mmHg 72%

    28 Avril, Dimanche

    Heure Température Précipitation Vent Pression Humidité
    00:00 +12°C° 0 mm 1 m/s 745 mmHg 73%
    01:00 +12°C° 0 mm 1 m/s 745 mmHg 74%
    02:00 +11°C° 0 mm 1 m/s 746 mmHg 75%
    03:00 +11°C° 0 mm 1 m/s 746 mmHg 77%
    04:00 +9°C° 0 mm 2 m/s 746 mmHg 78%
    05:00 +10°C° 0 mm 2 m/s 746 mmHg 77%
    06:00 +12°C° 0 mm 2 m/s 746 mmHg 76%
    07:00 +12°C° 0 mm 2 m/s 747 mmHg 74%
    08:00 +12°C° 0 mm 3 m/s 747 mmHg 73%
    09:00 +13°C° 0 mm 4 m/s 747 mmHg 71%
    10:00 +13°C° 0 mm 4 m/s 747 mmHg 69%
    11:00 +13°C° 0.5 mm 4 m/s 747 mmHg 72%
    12:00 +13°C° 0.5 mm 5 m/s 747 mmHg 74%
    13:00 +13°C° 0.5 mm 5 m/s 747 mmHg 77%
    14:00 +12°C° 1.4 mm 5 m/s 747 mmHg 80%
    15:00 +10°C° 1.4 mm 5 m/s 747 mmHg 83%
    16:00 +10°C° 1.4 mm 5 m/s 747 mmHg 87%
    17:00 +9°C° 1.1 mm 5 m/s 747 mmHg 87%
    18:00 +9°C° 1.1 mm 5 m/s 747 mmHg 88%
    19:00 +8°C° 1.1 mm 6 m/s 747 mmHg 89%
    20:00 +8°C° 0.3 mm 5 m/s 747 mmHg 90%
    21:00 +8°C° 0.3 mm 5 m/s 747 mmHg 91%
    22:00 +8°C° 0.3 mm 5 m/s 746 mmHg 93%
    23:00 +8°C° 0.4 mm 5 m/s 746 mmHg 94%

    29 Avril, Lundi

    Heure Température Précipitation Vent Pression Humidité
    00:00 +8°C° 0.4 mm 4 m/s 746 mmHg 94%
    01:00 +8°C° 0.4 mm 4 m/s 746 mmHg 95%
    02:00 +8°C° 1.1 mm 4 m/s 746 mmHg 96%
    03:00 +8°C° 1.1 mm 4 m/s 745 mmHg 96%
    04:00 +8°C° 1.1 mm 4 m/s 745 mmHg 96%
    05:00 +10°C° 0.8 mm 4 m/s 745 mmHg 96%
    06:00 +11°C° 0.8 mm 4 m/s 745 mmHg 96%
    07:00 +11°C° 0.8 mm 4 m/s 745 mmHg 96%
    08:00 +12°C° 0.1 mm 5 m/s 745 mmHg 94%
    09:00 +12°C° 0.1 mm 5 m/s 745 mmHg 93%
    10:00 +11°C° 0.1 mm 6 m/s 745 mmHg 91%
    11:00 +11°C° 0.3 mm 6 m/s 745 mmHg 91%
    12:00 +11°C° 0.3 mm 6 m/s 745 mmHg 91%
    13:00 +10°C° 0.3 mm 7 m/s 745 mmHg 90%
    14:00 +10°C° 0.9 mm 6 m/s 745 mmHg 90%
    15:00 +10°C° 0.9 mm 6 m/s 745 mmHg 90%
    16:00 +10°C° 0.9 mm 6 m/s 745 mmHg 90%
    17:00 +9°C° 0 mm 6 m/s 745 mmHg 90%
    18:00 +9°C° 0 mm 5 m/s 746 mmHg 90%
    19:00 +9°C° 0 mm 5 m/s 746 mmHg 90%
    20:00 +9°C° 0 mm 5 m/s 746 mmHg 90%
    21:00 +8°C° 0 mm 5 m/s 746 mmHg 91%
    22:00 +8°C° 0 mm 5 m/s 747 mmHg 91%
    23:00 +8°C° 0.1 mm 5 m/s 747 mmHg 91%

    30 Avril, Mardi

    Heure Température Précipitation Vent Pression Humidité
    00:00 +7°C° 0.1 mm 5 m/s 747 mmHg 90%
    01:00 +7°C° 0.1 mm 5 m/s 747 mmHg 90%
    02:00 +7°C° 0.1 mm 5 m/s 747 mmHg 89%
    03:00 +7°C° 0.1 mm 6 m/s 747 mmHg 89%
    04:00 +7°C° 0.1 mm 6 m/s 747 mmHg 88%
    05:00 +7°C° 0 mm 6 m/s 748 mmHg 87%
    06:00 +6°C° 0 mm 7 m/s 748 mmHg 85%
    07:00 +6°C° 0 mm 7 m/s 748 mmHg 83%
    08:00 +8°C° 0 mm 7 m/s 748 mmHg 78%
    09:00 +9°C° 0 mm 7 m/s 748 mmHg 73%
    10:00 +10°C° 0 mm 7 m/s 749 mmHg 67%
    11:00 +11°C° 0 mm 7 m/s 748 mmHg 64%
    12:00 +13°C° 0 mm 6 m/s 748 mmHg 61%
    13:00 +13°C° 0 mm 6 m/s 748 mmHg 58%
    14:00 +13°C° 0 mm 6 m/s 748 mmHg 57%
    15:00 +13°C° 0 mm 6 m/s 748 mmHg 57%
    16:00 +13°C° 0 mm 5 m/s 748 mmHg 56%
    17:00 +12°C° 0 mm 4 m/s 748 mmHg 59%
    18:00 +11°C° 0 mm 3 m/s 748 mmHg 63%
    19:00 +10°C° 0 mm 3 m/s 749 mmHg 66%
    20:00 +10°C° 0 mm 2 m/s 749 mmHg 67%
    21:00 +9°C° 0 mm 2 m/s 749 mmHg 68%
    22:00 +9°C° 0 mm 2 m/s 749 mmHg 69%
    23:00 +8°C° 0 mm 2 m/s 749 mmHg 70%
    Voir plus